• In Hungary
  • List of Countries
  • For 7 days
  • Water Temperature
  • Satellite Maps
  • Weather Map
  • News
  • Weather Widgets
  • user-avatar
    Login

    Hourly Weather Goryachinsk

    Today, 19 September, Wednesday

    Time Temperature Precipitation Wind Pressure Humidity
    00:00 +7°C° 0 mm 2 mps 715 mmHg 94%
    01:00 +6°C° 0 mm 2 mps 715 mmHg 94%
    02:00 +6°C° 0 mm 2 mps 716 mmHg 94%
    03:00 +6°C° 0 mm 2 mps 716 mmHg 94%
    04:00 +6°C° 0 mm 2 mps 716 mmHg 94%
    05:00 +6°C° 0.2 mm 2 mps 716 mmHg 92%
    06:00 +5°C° 0.2 mm 3 mps 716 mmHg 89%
    07:00 +6°C° 0 mm 4 mps 716 mmHg 86%
    08:00 +6°C° 0.6 mm 4 mps 716 mmHg 86%
    09:00 +7°C° 0.6 mm 3 mps 716 mmHg 86%
    10:00 +7°C° 0.6 mm 3 mps 716 mmHg 86%
    11:00 +7°C° 1.1 mm 3 mps 715 mmHg 87%
    12:00 +5°C° 1.1 mm 3 mps 715 mmHg 89%
    13:00 +4°C° 0 mm 3 mps 716 mmHg 91%
    14:00 +4°C° 1.7 mm 3 mps 716 mmHg 92%
    15:00 +4°C° 1.7 mm 3 mps 716 mmHg 92%
    16:00 +4°C° 1.7 mm 3 mps 715 mmHg 93%
    17:00 +4°C° 1.1 mm 3 mps 715 mmHg 94%
    18:00 +3°C° 1.1 mm 3 mps 715 mmHg 94%
    19:00 +2°C° 0 mm 7 mps 715 mmHg 93%
    20:00 +2°C° 1.6 mm 6 mps 714 mmHg 94%
    21:00 +2°C° 1.6 mm 6 mps 714 mmHg 94%
    22:00 +2°C° 1.6 mm 6 mps 714 mmHg 94%
    23:00 +2°C° 1.4 mm 6 mps 714 mmHg 94%

    Tomorrow, 20 September, Thursday

    Time Temperature Precipitation Wind Pressure Humidity
    00:00 +1°C° 1.4 mm 6 mps 713 mmHg 94%
    01:00 +1°C° 1.4 mm 6 mps 713 mmHg 94%
    02:00 +1°C° 1.3 mm 6 mps 713 mmHg 95%
    03:00 +1°C° 1.3 mm 6 mps 712 mmHg 95%
    04:00 +1°C° 1.3 mm 6 mps 712 mmHg 95%
    05:00 +1°C° 0.8 mm 6 mps 712 mmHg 95%
    06:00 +1°C° 0.8 mm 6 mps 712 mmHg 95%
    07:00 +1°C° 0.8 mm 6 mps 712 mmHg 95%
    08:00 +2°C° 0.3 mm 6 mps 712 mmHg 95%
    09:00 +2°C° 0.3 mm 6 mps 712 mmHg 95%
    10:00 +2°C° 0.3 mm 6 mps 712 mmHg 95%
    11:00 +3°C° 0.1 mm 6 mps 712 mmHg 95%
    12:00 +3°C° 0.1 mm 5 mps 712 mmHg 94%
    13:00 +3°C° 0.1 mm 5 mps 712 mmHg 94%
    14:00 +3°C° 0 mm 5 mps 713 mmHg 94%
    15:00 +5°C° 0 mm 5 mps 713 mmHg 94%
    16:00 +5°C° 0 mm 4 mps 714 mmHg 94%
    17:00 +4°C° 0 mm 4 mps 714 mmHg 94%
    18:00 +3°C° 0 mm 5 mps 715 mmHg 95%
    19:00 +2°C° 0 mm 5 mps 715 mmHg 95%
    20:00 +2°C° 0 mm 5 mps 716 mmHg 95%
    21:00 +2°C° 0 mm 5 mps 716 mmHg 95%
    22:00 +2°C° 0 mm 5 mps 716 mmHg 94%
    23:00 +2°C° 0 mm 5 mps 717 mmHg 95%

    Day after tomorrow, 21 September, Friday

    Time Temperature Precipitation Wind Pressure Humidity
    00:00 +3°C° 0 mm 4 mps 717 mmHg 95%
    01:00 +3°C° 0 mm 4 mps 717 mmHg 95%
    02:00 +3°C° 0 mm 4 mps 717 mmHg 95%
    03:00 +1°C° 0 mm 4 mps 717 mmHg 95%
    04:00 +2°C° 0 mm 3 mps 717 mmHg 95%
    05:00 +2°C° 0 mm 3 mps 718 mmHg 95%
    06:00 +3°C° 0 mm 3 mps 718 mmHg 94%
    07:00 +3°C° 0 mm 3 mps 719 mmHg 94%
    08:00 +4°C° 0 mm 3 mps 719 mmHg 93%
    09:00 +4°C° 0 mm 3 mps 719 mmHg 91%
    10:00 +5°C° 0 mm 3 mps 720 mmHg 90%
    11:00 +5°C° 0 mm 3 mps 720 mmHg 89%
    12:00 +7°C° 0 mm 3 mps 720 mmHg 88%
    13:00 +7°C° 0 mm 3 mps 719 mmHg 87%
    14:00 +7°C° 0 mm 2 mps 720 mmHg 87%
    15:00 +7°C° 0 mm 2 mps 720 mmHg 86%
    16:00 +8°C° 0 mm 1 mps 720 mmHg 86%
    17:00 +6°C° 0 mm 1 mps 720 mmHg 88%
    18:00 +5°C° 0 mm 1 mps 720 mmHg 90%
    19:00 +2°C° 0 mm 2 mps 721 mmHg 91%
    20:00 +2°C° 0 mm 2 mps 721 mmHg 92%
    21:00 +3°C° 0 mm 1 mps 721 mmHg 92%
    22:00 +3°C° 0 mm 1 mps 722 mmHg 92%
    23:00 +3°C° 0 mm 1 mps 722 mmHg 92%

    22 September, Saturday

    Time Temperature Precipitation Wind Pressure Humidity
    00:00 +3°C° 0 mm 1 mps 722 mmHg 93%
    01:00 +3°C° 0 mm 1 mps 722 mmHg 93%
    02:00 +3°C° 0 mm 1 mps 723 mmHg 93%
    03:00 +3°C° 0 mm 1 mps 723 mmHg 94%
    04:00 +2°C° 0 mm 1 mps 723 mmHg 94%
    05:00 +3°C° 0 mm 1 mps 723 mmHg 93%
    06:00 +4°C° 0 mm 1 mps 724 mmHg 92%
    07:00 +5°C° 0 mm 1 mps 724 mmHg 90%
    08:00 +6°C° 0 mm 1 mps 724 mmHg 88%
    09:00 +8°C° 0 mm 1 mps 724 mmHg 86%
    10:00 +9°C° 0 mm 1 mps 724 mmHg 84%
    11:00 +10°C° 0 mm 1 mps 724 mmHg 82%
    12:00 +10°C° 0 mm 1 mps 724 mmHg 81%
    13:00 +10°C° 0 mm 1 mps 723 mmHg 79%
    14:00 +10°C° 0 mm 1 mps 723 mmHg 80%
    15:00 +9°C° 0 mm 1 mps 723 mmHg 81%
    16:00 +9°C° 0 mm 1 mps 723 mmHg 82%
    17:00 +7°C° 0 mm 1 mps 723 mmHg 85%
    18:00 +5°C° 0 mm 1 mps 723 mmHg 89%
    19:00 +4°C° 0 mm 1 mps 724 mmHg 92%
    20:00 +3°C° 0 mm 1 mps 724 mmHg 92%
    21:00 +3°C° 0 mm 1 mps 724 mmHg 92%
    22:00 +2°C° 0 mm 1 mps 724 mmHg 91%
    23:00 +2°C° 0 mm 1 mps 724 mmHg 89%

    23 September, Sunday

    Time Temperature Precipitation Wind Pressure Humidity
    00:00 +2°C° 0 mm 1 mps 724 mmHg 87%
    01:00 +2°C° 0 mm 1 mps 724 mmHg 85%
    02:00 +2°C° 0 mm 1 mps 724 mmHg 85%
    03:00 +1°C° 0 mm 1 mps 724 mmHg 84%
    04:00 +1°C° 0 mm 1 mps 724 mmHg 84%
    05:00 +2°C° 0 mm 1 mps 724 mmHg 82%
    06:00 +3°C° 0 mm 1 mps 724 mmHg 81%
    07:00 +4°C° 0 mm 1 mps 724 mmHg 80%
    08:00 +6°C° 0 mm 1 mps 724 mmHg 77%
    09:00 +9°C° 0 mm 1 mps 724 mmHg 74%
    10:00 +11°C° 0 mm 1 mps 724 mmHg 71%
    11:00 +12°C° 0 mm 1 mps 723 mmHg 70%
    12:00 +12°C° 0 mm 1 mps 723 mmHg 68%
    13:00 +13°C° 0 mm 2 mps 722 mmHg 66%
    14:00 +13°C° 0 mm 2 mps 722 mmHg 69%
    15:00 +12°C° 0 mm 2 mps 722 mmHg 72%
    16:00 +12°C° 0 mm 2 mps 721 mmHg 75%
    17:00 +9°C° 0 mm 2 mps 722 mmHg 79%
    18:00 +7°C° 0 mm 2 mps 722 mmHg 83%
    19:00 +5°C° 0 mm 2 mps 722 mmHg 87%
    20:00 +4°C° 0 mm 2 mps 722 mmHg 87%
    21:00 +4°C° 0 mm 2 mps 722 mmHg 86%
    22:00 +4°C° 0 mm 2 mps 722 mmHg 86%
    23:00 +3°C° 0 mm 2 mps 722 mmHg 86%

    24 September, Monday

    Time Temperature Precipitation Wind Pressure Humidity
    00:00 +3°C° 0 mm 2 mps 722 mmHg 87%
    01:00 +3°C° 0 mm 2 mps 722 mmHg 87%
    02:00 +3°C° 0 mm 2 mps 722 mmHg 88%
    03:00 +3°C° 0 mm 2 mps 722 mmHg 89%
    04:00 +2°C° 0 mm 2 mps 721 mmHg 90%
    05:00 +3°C° 0 mm 2 mps 721 mmHg 88%
    06:00 +4°C° 0 mm 2 mps 721 mmHg 87%
    07:00 +6°C° 0 mm 1 mps 721 mmHg 85%
    08:00 +7°C° 0 mm 2 mps 721 mmHg 80%
    09:00 +9°C° 0 mm 2 mps 721 mmHg 75%
    10:00 +12°C° 0 mm 2 mps 720 mmHg 69%
    11:00 +13°C° 0 mm 2 mps 720 mmHg 66%
    12:00 +14°C° 0 mm 2 mps 719 mmHg 63%
    13:00 +15°C° 0 mm 2 mps 719 mmHg 60%
    14:00 +14°C° 0 mm 2 mps 718 mmHg 62%
    15:00 +14°C° 0 mm 2 mps 718 mmHg 64%
    16:00 +13°C° 0 mm 2 mps 718 mmHg 67%
    17:00 +10°C° 0 mm 2 mps 718 mmHg 71%
    18:00 +8°C° 0 mm 2 mps 718 mmHg 75%
    19:00 +6°C° 0 mm 2 mps 718 mmHg 79%
    20:00 +6°C° 0 mm 2 mps 718 mmHg 78%
    21:00 +5°C° 0 mm 2 mps 718 mmHg 77%
    22:00 +5°C° 0 mm 2 mps 718 mmHg 76%
    23:00 +5°C° 0 mm 2 mps 717 mmHg 76%
    Show more